Theta_e
318 318 319 319 319 320 323 323 321 323 325 324 320 319 320 318 318 319 319 323 330 334 335 339 340 340 341 341 342 343 344 346 346 347 349 349 351 353 354 355 355 355 356 355 354 354 353 354 354 354 354 354 353 350 348 348 347 347 347 347 346 346 345
318 318 319 319 320 320 321 320 321 323 324 324 322 320 320 318 318 319 318 321 325 325 330 338 340 339 340 339 341 342 343 344 345 346 347 347 348 349 351 354 355 355 356 356 355 354 354 354 354 354 354 354 352 349 349 349 348 348 348 347 347 346 345
318 318 319 318 320 321 320 321 322 323 320 319 321 320 319 317 317 318 318 322 326 327 331 338 339 339 339 338 339 340 341 342 343 344 345 347 347 347 349 352 354 355 355 356 356 355 354 354 354 354 353 353 353 351 350 350 349 349 348 348 347 346 346
318 319 318 317 318 320 321 321 322 323 321 319 320 320 319 317 316 318 320 322 328 333 336 338 338 339 338 338 337 338 339 341 341 343 344 346 346 347 349 351 352 354 355 355 356 355 355 353 353 354 354 353 354 353 352 351 351 351 349 349 348 347 346
317 318 317 316 317 318 319 320 319 321 321 321 321 320 320 318 316 318 320 322 329 336 337 337 338 337 336 336 337 338 339 339 340 341 342 344 346 347 349 351 351 353 354 354 355 355 354 353 353 354 354 354 354 354 354 353 353 353 352 351 350 349 347
315 315 315 315 316 316 318 319 318 319 320 320 320 320 320 319 319 319 319 323 332 335 335 335 336 336 336 337 338 338 337 338 338 339 339 342 344 345 347 349 350 352 353 354 354 354 354 354 354 353 353 354 354 354 354 354 354 354 354 354 353 350 348
315 314 315 315 315 316 317 318 318 319 320 319 318 318 319 318 319 320 319 326 333 334 334 336 336 336 337 337 337 337 336 336 336 336 337 339 341 343 344 345 347 350 352 353 353 354 354 354 354 353 353 353 353 353 353 353 354 354 354 355 354 352 350
316 315 315 316 315 316 317 317 317 318 319 320 319 321 323 319 318 319 318 325 332 333 334 337 336 336 337 336 336 336 334 334 334 334 335 336 337 339 341 342 345 347 350 351 352 353 354 354 353 353 354 353 353 353 353 353 353 354 354 354 355 353 350
316 316 316 316 316 316 317 316 316 316 318 320 319 322 324 321 321 321 317 323 331 333 334 336 335 335 336 335 335 335 333 333 332 332 333 333 334 336 337 340 342 345 347 349 350 352 353 354 354 354 353 353 353 353 353 353 352 353 354 353 355 354 352
316 317 317 316 316 316 316 315 316 316 316 318 319 321 321 320 324 325 322 327 333 335 334 334 333 333 334 334 334 334 333 332 331 331 330 330 332 332 334 336 339 342 344 345 348 350 351 352 353 353 353 353 352 352 352 353 352 352 353 353 354 355 354
317 318 318 317 316 316 316 314 315 315 315 317 319 320 320 320 323 324 325 332 336 335 334 334 332 331 332 333 333 333 333 332 330 330 329 328 329 329 330 332 335 338 341 342 345 346 348 350 351 352 353 352 352 352 352 352 352 352 352 352 353 354 354
316 317 316 315 315 316 315 314 314 314 315 316 318 319 319 322 322 321 325 331 333 332 333 332 331 331 331 332 332 331 331 331 330 329 329 328 327 327 326 327 329 331 334 337 341 344 345 346 348 350 352 351 351 352 351 351 351 351 351 352 352 353 354
314 315 314 314 315 315 314 314 314 314 314 315 317 317 317 320 321 321 323 327 330 331 330 330 330 331 331 331 331 330 330 330 330 329 328 328 327 326 326 325 325 326 327 329 334 338 342 345 346 348 349 351 351 351 350 351 351 351 351 351 352 353 353
313 313 313 313 313 313 313 313 313 313 313 314 315 315 315 317 319 320 322 325 328 329 328 329 330 331 331 331 330 330 329 329 329 329 328 327 327 327 326 326 325 325 325 325 326 331 336 342 345 347 347 348 350 351 351 350 350 350 350 350 351 353 352
313 312 312 312 312 312 312 312 312 312 313 313 313 314 316 316 317 318 320 323 325 327 328 330 329 329 330 330 330 330 329 328 328 328 328 328 327 327 327 326 325 324 325 325 325 326 328 333 339 344 346 347 348 349 350 351 351 349 349 350 350 352 353
313 312 312 311 311 311 310 311 312 312 312 313 315 317 319 320 320 318 317 319 324 328 329 330 329 329 329 329 329 329 328 327 327 327 327 327 327 327 327 327 326 325 324 325 326 326 325 326 330 335 339 343 346 348 350 351 351 351 350 351 350 351 352
313 312 311 311 311 310 310 312 313 313 314 314 316 320 322 323 323 321 318 321 326 328 328 328 328 328 328 328 328 327 327 327 326 326 326 326 326 327 326 326 326 325 324 324 325 327 327 326 326 326 329 334 339 346 349 350 351 352 352 352 351 350 351
314 312 312 312 311 311 313 314 313 315 316 316 317 320 323 323 323 323 323 324 325 325 325 326 327 327 327 327 326 325 325 326 325 325 325 325 325 325 325 326 326 326 325 324 324 325 327 328 327 325 325 326 330 338 346 349 350 352 352 352 352 351 351
314 313 313 313 312 313 314 314 314 316 318 319 320 322 323 322 323 323 324 323 323 324 324 325 325 326 326 325 326 324 323 324 325 324 324 324 323 324 324 325 325 325 326 325 323 324 325 327 328 327 325 324 325 332 342 347 349 351 352 352 352 351 351
315 314 313 313 314 315 314 314 314 316 317 318 321 322 322 321 322 322 323 323 324 325 324 324 324 324 325 325 326 324 322 322 323 323 323 323 322 322 322 323 323 324 324 325 324 324 323 324 327 329 328 325 323 327 336 343 346 349 351 352 352 352 351
316 315 313 315 316 315 314 315 316 318 318 318 320 321 321 322 322 321 322 323 324 324 323 323 323 323 324 326 326 324 321 321 321 321 322 322 321 322 321 322 322 322 322 324 324 324 324 323 324 327 329 328 325 324 328 335 341 346 349 349 350 351 351
316 315 314 315 314 315 317 319 318 318 319 320 319 318 318 322 323 321 322 323 323 323 322 322 322 323 323 325 326 323 321 320 319 320 321 321 320 320 320 321 321 321 321 322 323 324 324 323 323 324 327 328 328 327 326 328 333 339 344 346 348 349 349
316 315 314 314 314 316 320 319 318 317 317 318 318 316 316 321 322 321 321 321 321 321 321 321 322 322 322 323 324 321 319 318 318 319 320 320 319 319 319 319 320 320 320 321 321 322 323 323 323 324 325 326 329 329 327 325 328 334 339 342 345 347 348
316 315 315 314 315 318 319 318 317 317 316 317 318 318 318 321 320 319 320 320 319 319 319 320 321 321 321 321 321 318 317 317 317 317 318 318 318 318 318 318 318 319 320 320 320 321 321 321 322 324 324 324 326 328 328 326 326 329 334 337 339 341 344
316 315 314 314 315 317 318 317 317 317 316 316 317 318 320 320 319 318 319 318 318 318 318 318 319 319 319 319 317 316 315 315 316 316 316 316 316 317 317 317 317 317 319 319 319 319 320 319 320 323 324 324 325 327 328 328 326 326 328 332 335 335 336
315 315 315 314 315 317 318 317 317 316 315 315 317 319 319 319 318 319 318 317 317 317 317 317 318 317 317 316 315 315 315 315 315 315 315 315 315 315 315 315 316 317 318 318 318 318 319 319 318 320 322 323 325 327 328 329 329 327 325 327 331 332 332
314 314 314 314 314 317 317 316 316 316 315 316 318 318 318 317 317 317 317 317 317 316 316 316 316 316 315 315 315 315 314 314 314 314 314 314 314 314 314 314 315 316 316 316 317 317 318 318 317 316 318 320 322 325 327 328 328 328 325 325 327 329 330
313 313 314 314 315 317 317 315 315 316 316 317 318 318 316 316 316 316 316 316 316 316 315 315 314 314 314 314 314 314 314 314 313 313 313 313 312 312 313 313 313 313 314 315 316 316 316 316 315 314 314 315 318 321 324 325 326 327 327 327 326 326 328
313 313 315 316 316 316 316 314 314 316 317 317 317 316 315 315 315 315 315 315 315 315 314 313 313 313 313 313 313 313 313 313 313 313 312 312 311 311 312 312 311 311 312 312 313 314 316 315 314 314 313 313 314 317 319 322 323 325 327 328 328 327 324
315 315 315 316 315 314 315 314 314 315 316 316 315 315 314 314 314 314 314 314 314 313 313 313 313 313 313 313 313 313 313 313 312 312 312 312 310 310 310 310 309 308 309 310 310 312 313 313 313 313 313 313 313 313 315 319 321 323 324 326 327 329 326
315 314 315 315 315 314 314 314 314 315 315 315 315 314 313 313 313 314 313 313 312 312 312 313 313 313 313 313 313 313 313 312 312 312 312 312 311 309 308 308 307 307 308 309 310 310 310 311 312 313 313 313 313 313 314 317 320 322 322 323 325 327 328
315 315 315 316 315 315 314 313 314 314 314 314 314 313 313 313 313 313 313 312 312 312 312 312 313 313 313 313 313 313 312 312 312 312 312 312 311 309 308 307 307 307 309 310 310 310 309 309 310 311 311 312 313 313 313 313 316 319 321 323 324 325 326
315 315 316 316 316 315 315 314 313 313 313 313 314 313 313 313 313 313 313 312 312 312 312 312 312 312 312 312 312 312 312 312 312 312 312 312 311 310 309 308 309 310 311 311 311 311 311 310 310 310 310 311 312 312 313 312 312 315 318 321 323 324 325
314 315 316 315 315 315 315 315 314 313 313 313 313 314 314 313 313 313 313 312 312 312 311 311 311 311 311 311 311 311 311 311 311 311 311 311 311 311 311 311 311 311 312 312 312 312 311 311 311 310 309 310 311 311 312 314 313 313 315 320 322 322 324
314 315 315 315 315 315 315 314 314 313 313 313 313 313 314 313 313 313 313 313 312 312 311 310 310 310 310 310 310 310 310 310 310 310 310 310 310 311 311 311 312 312 312 312 312 312 312 312 312 313 312 312 312 312 312 314 314 314 317 321 322 322 323
315 315 315 315 316 315 315 314 314 313 314 313 313 313 314 313 313 313 312 312 312 311 310 310 310 310 310 309 309 309 309 309 309 309 309 310 310 310 310 311 311 311 312 312 312 313 313 313 313 314 314 314 315 316 316 317 317 317 320 322 322 321 322
315 314 315 316 316 315 314 314 314 314 314 313 313 314 314 313 313 313 312 312 311 310 310 310 310 309 309 309 308 308 308 308 308 308 309 309 309 310 310 310 311 311 312 312 312 312 313 313 314 315 315 315 315 317 318 319 318 317 319 322 323 322 322
Wind_Speed
1 2 1 3 5 4 6 8 9 4 1 4 3 3 6 8 8 8 8 6 7 8 8 7 7 9 12 13 15 16 17 17 15 13 13 12 8 5 10 17 21 22 24 26 27 28 28 29 30 30 29 29 30 31 30 29 28 27 26 25 24 24 24
5 2 1 2 2 4 3 7 7 4 1 4 4 3 6 9 7 7 11 11 9 8 5 5 8 10 13 13 14 16 17 18 17 16 15 15 15 13 9 9 17 21 22 24 25 26 27 28 28 29 30 30 30 31 29 28 29 28 27 26 24 24 25
6 3 3 5 4 2 4 1 4 4 4 7 6 5 6 9 9 7 12 12 6 2 1 6 9 12 13 12 13 14 17 19 18 18 18 17 16 14 13 10 11 17 21 23 24 24 25 26 27 27 29 30 30 30 29 28 28 27 27 26 25 25 25
6 3 2 3 5 4 3 3 3 4 5 5 6 7 6 7 9 8 10 10 5 4 3 5 8 10 10 11 12 12 15 18 18 18 19 18 16 15 13 9 11 14 17 20 22 23 23 24 26 26 27 28 28 28 29 28 27 27 27 27 27 27 26
7 3 3 4 3 1 4 6 6 5 4 3 3 7 5 5 7 8 9 8 5 5 3 5 7 8 8 10 10 10 14 16 17 18 18 18 17 15 16 9 5 10 14 17 18 21 22 23 24 25 26 27 27 26 26 26 27 27 27 28 29 29 27
4 5 6 5 6 6 3 1 1 2 4 4 6 8 7 5 5 4 7 7 6 5 2 4 6 7 8 10 10 11 14 15 16 17 18 19 18 16 18 18 10 3 5 11 14 18 21 21 21 23 25 25 26 26 25 25 26 26 26 27 29 30 29
6 8 4 3 4 4 4 4 3 2 2 3 6 6 6 7 5 4 5 5 7 4 1 4 7 8 9 10 11 12 14 15 16 18 19 20 21 20 20 21 19 14 8 5 7 11 16 20 21 21 22 24 24 25 25 25 26 26 26 25 27 30 30
6 6 3 1 1 2 1 4 5 3 2 2 4 4 3 6 6 3 7 5 6 3 1 4 8 10 10 10 12 12 13 16 17 18 20 21 22 23 23 23 21 17 11 8 7 5 5 14 20 19 19 21 22 23 24 25 25 26 26 25 25 27 29
6 6 5 4 2 1 2 4 5 5 5 3 3 3 3 5 1 2 7 4 6 4 5 5 8 10 11 11 13 13 13 15 17 19 20 21 23 25 25 24 23 19 14 10 7 7 6 4 10 15 18 19 19 21 23 23 24 24 24 24 25 26 27
6 5 4 3 3 4 3 4 5 6 7 5 3 2 5 5 1 2 3 4 9 7 7 8 7 8 9 11 12 13 14 14 16 18 19 21 22 24 26 26 24 22 19 14 10 7 6 5 2 7 14 18 19 20 21 21 22 23 24 23 24 25 26
2 3 4 4 2 3 4 4 5 5 7 7 5 3 4 2 3 2 4 7 13 11 9 8 7 7 8 10 11 12 13 14 15 16 17 20 22 24 27 28 26 24 22 18 14 9 5 3 3 2 5 12 15 17 20 21 21 22 23 24 24 25 24
6 7 7 5 3 3 4 3 3 4 6 6 5 1 2 3 2 4 5 6 11 12 9 8 7 7 8 9 11 11 12 13 14 15 16 19 22 25 28 29 28 27 25 23 18 13 9 5 3 3 3 7 11 14 16 18 19 20 22 23 24 25 24
6 6 6 4 3 3 2 2 3 3 3 3 4 4 4 5 2 5 7 5 8 10 9 8 8 7 7 9 10 10 11 12 13 15 17 19 21 23 27 29 29 28 27 25 23 20 14 8 3 2 3 4 8 12 15 16 17 18 20 22 23 24 24
5 4 3 3 3 1 0 1 2 1 2 2 2 2 2 2 3 6 8 6 7 8 7 8 7 6 7 8 9 10 12 12 13 14 16 18 19 20 23 25 27 27 26 25 24 24 21 15 8 2 1 4 4 4 10 16 17 16 17 20 22 23 24
4 2 1 1 2 2 1 1 1 1 1 2 2 1 1 1 2 4 5 5 5 6 7 8 6 4 5 7 9 10 12 13 13 14 16 16 17 18 19 22 24 25 25 24 23 23 23 22 17 10 3 2 3 1 3 10 16 18 18 19 22 23 23
4 3 1 0 1 3 4 4 3 2 3 2 2 2 1 1 2 5 5 4 4 6 6 7 5 3 3 5 8 9 11 13 13 14 15 15 16 17 18 19 21 23 24 24 22 21 21 21 20 18 13 7 0 3 3 5 11 16 18 18 20 22 22
4 4 1 2 3 5 5 3 3 2 2 2 2 3 2 0 1 2 3 2 6 6 4 5 4 2 2 4 7 8 10 12 12 13 14 15 15 16 17 18 19 21 23 23 22 21 19 18 18 18 18 16 10 2 3 4 8 13 17 19 20 21 21
3 4 2 3 5 5 3 5 4 2 1 1 3 3 4 2 1 1 3 5 6 5 2 3 4 3 3 4 5 8 10 10 11 12 13 14 15 15 16 17 18 18 20 22 22 20 19 18 15 14 14 16 15 10 4 2 7 11 15 19 22 22 22
2 3 4 5 4 2 5 6 4 2 2 0 1 3 3 2 2 3 4 5 5 3 2 2 3 3 2 2 2 6 9 9 10 11 12 13 14 14 15 16 17 18 18 20 22 20 19 19 17 14 12 12 14 14 9 6 4 8 11 15 19 23 24
1 3 5 3 1 4 5 4 4 2 1 2 3 4 5 4 3 3 4 6 5 2 1 1 2 4 1 2 4 3 7 9 10 10 11 12 13 14 15 15 15 17 17 18 20 20 19 19 18 16 12 10 11 13 12 9 5 5 8 11 15 20 23
2 3 4 1 2 4 6 5 4 2 1 1 1 2 5 7 5 4 5 6 5 3 2 1 3 4 2 4 5 5 7 8 9 9 10 11 12 12 13 13 13 15 16 16 16 18 19 19 17 17 15 11 9 11 12 11 8 6 7 10 12 16 21
2 3 3 3 3 3 4 6 6 3 2 3 1 4 3 8 8 5 5 6 5 4 3 2 3 4 5 6 5 6 7 8 9 9 9 10 12 12 13 13 13 14 16 15 15 15 17 19 18 16 16 14 10 10 11 11 11 8 6 6 8 13 20
3 4 4 4 4 1 5 7 7 5 3 2 2 5 4 7 9 5 5 6 6 4 3 2 4 6 7 5 5 6 9 10 10 10 10 11 12 13 13 13 13 16 16 15 15 15 14 17 18 16 16 14 12 10 10 10 10 9 6 4 3 6 14
2 3 4 3 2 2 6 6 6 6 4 2 6 6 3 5 6 4 4 5 5 4 4 4 4 6 6 2 7 11 13 14 13 12 12 12 13 14 14 14 15 16 16 14 15 15 15 16 17 16 16 15 13 11 10 9 10 10 9 6 3 3 5
3 4 4 4 1 4 7 8 8 7 4 4 6 3 4 7 6 5 4 4 4 4 5 5 4 4 6 8 12 13 14 15 15 15 14 14 14 14 14 15 17 16 14 15 16 15 15 16 16 15 16 16 15 13 11 10 9 10 11 9 6 4 3
3 3 3 4 1 4 6 8 8 7 5 4 1 3 7 7 6 5 4 3 3 4 5 5 5 5 6 8 10 11 12 14 15 17 17 16 16 16 16 17 17 15 14 16 17 16 15 15 16 15 15 16 15 13 12 11 8 8 10 11 10 7 4
3 3 4 5 2 4 9 9 7 7 6 0 5 6 5 4 3 2 3 4 3 4 6 6 6 7 7 8 8 9 10 12 13 16 17 18 19 19 19 18 16 15 16 17 17 17 17 17 18 18 17 17 16 14 13 12 10 8 7 9 9 8 6
4 4 3 1 2 7 11 8 2 4 5 2 4 2 2 2 4 5 5 5 5 5 6 7 8 8 8 8 7 8 10 11 13 14 17 19 20 20 20 20 18 19 19 19 18 19 19 20 22 21 20 19 18 17 15 14 14 12 8 7 8 6 6
4 5 2 3 5 7 9 6 3 2 4 3 2 4 5 6 8 8 7 7 5 5 6 8 9 9 9 9 9 9 10 11 13 14 16 19 21 22 21 22 22 22 22 22 22 21 19 21 25 25 23 21 20 19 19 17 17 16 13 11 9 6 6
3 8 8 5 4 5 7 7 6 5 5 5 5 5 7 7 7 8 8 8 6 6 7 8 9 10 10 10 11 11 11 12 13 14 16 18 21 23 23 23 24 24 24 24 24 23 22 23 25 26 25 23 22 22 22 20 19 19 18 16 14 10 7
2 4 6 6 7 8 8 9 9 9 9 8 7 7 8 7 7 8 8 8 8 8 8 9 10 11 11 12 13 13 13 13 14 14 16 18 21 24 25 26 26 27 26 26 25 25 25 25 25 26 26 25 24 23 22 21 20 21 21 20 18 16 12
7 6 5 4 5 7 8 9 10 11 11 10 9 9 8 7 8 8 8 9 9 9 9 9 10 11 12 13 14 15 14 15 15 15 16 18 21 24 26 27 27 27 26 26 26 26 27 26 26 27 29 29 27 24 23 23 22 22 22 21 21 19 17
9 10 10 10 9 9 12 14 14 13 12 10 9 9 9 9 9 9 9 10 9 9 9 9 10 13 14 14 16 17 17 17 17 17 17 18 21 23 25 26 26 25 25 25 26 27 28 27 27 28 29 30 30 27 25 25 24 23 23 22 22 21 19
7 6 6 7 8 8 10 12 14 14 13 12 11 10 10 10 10 10 10 10 10 10 11 11 12 15 16 17 18 19 19 19 19 20 20 20 21 21 22 23 23 22 23 23 25 27 28 28 28 28 28 30 31 30 27 25 24 24 23 22 22 22 21
9 8 8 8 8 10 10 8 10 12 13 13 13 12 11 11 10 10 10 10 10 10 12 13 14 16 17 18 19 20 21 21 21 22 22 21 21 21 21 21 22 23 23 23 24 27 27 27 28 27 26 26 28 29 28 25 24 23 19 18 20 22 21
12 13 13 11 10 12 13 11 11 12 12 12 12 12 11 10 10 10 9 9 10 11 13 14 15 16 18 19 20 22 23 23 23 23 23 23 23 22 22 22 22 23 24 24 25 26 27 27 26 25 25 24 23 23 23 22 23 22 17 14 17 20 21
16 16 15 12 12 13 13 12 12 12 12 12 11 11 10 10 9 9 9 9 11 12 13 15 16 16 18 20 21 22 23 24 24 25 24 24 23 22 22 22 23 24 25 25 26 26 26 27 26 24 25 25 23 22 21 21 22 23 20 15 15 17 19
Wind_Direction
42 350 333 272 265 222 176 196 209 195 273 262 248 198 189 202 196 179 182 150 107 134 130 82 58 52 44 34 29 27 24 24 26 24 15 3 343 276 231 220 215 211 207 203 200 199 198 199 200 201 201 201 207 218 221 218 219 220 222 225 226 226 225
102 41 259 178 261 276 214 196 190 144 40 272 262 218 184 199 199 175 185 171 140 168 169 56 31 28 27 24 25 25 23 23 22 20 15 5 353 337 313 256 220 212 210 208 204 203 202 201 201 202 204 206 213 222 224 222 221 222 222 224 226 227 226
127 145 214 175 166 260 301 275 167 168 216 214 218 230 193 194 203 185 184 178 146 147 120 36 20 18 16 15 21 23 22 20 18 15 13 9 2 349 333 302 237 214 210 211 209 207 206 204 202 204 207 210 216 223 226 225 225 224 223 223 225 226 226
158 166 230 186 158 177 237 246 192 208 242 215 207 223 210 203 209 193 182 179 140 74 50 31 26 25 16 14 22 23 20 19 17 16 13 11 10 5 351 310 246 222 212 210 211 211 209 208 205 203 206 208 212 219 224 224 223 225 226 225 226 227 226
185 160 49 30 33 103 207 210 196 191 221 247 227 221 225 241 226 199 191 186 133 83 51 32 43 41 27 24 26 26 23 19 18 18 17 16 15 14 12 359 258 228 219 211 211 212 212 213 209 204 204 206 208 211 216 219 218 220 224 225 227 229 228
157 100 61 35 16 6 357 231 201 203 220 225 215 208 210 245 264 238 207 182 117 87 56 50 57 53 44 37 32 32 28 21 21 21 19 21 21 19 19 20 30 64 201 208 211 214 214 213 211 208 206 206 207 208 210 213 212 214 218 219 224 231 231
101 103 83 34 17 2 15 40 25 322 270 246 231 220 204 210 235 279 243 172 112 99 91 76 74 67 61 51 41 41 35 27 24 22 20 22 23 23 23 25 35 54 80 135 179 203 213 215 214 212 210 209 209 209 208 210 210 212 214 213 218 230 234
104 125 134 44 336 271 147 60 31 353 340 322 293 312 287 218 201 228 237 186 118 125 166 98 89 77 69 62 53 48 41 33 27 25 24 24 23 25 28 30 36 48 67 94 109 115 185 213 215 215 215 214 214 212 210 210 211 211 212 209 211 224 233
154 167 177 178 191 200 108 67 38 21 17 344 294 307 276 237 200 282 247 189 113 144 171 125 100 83 70 64 59 53 48 39 31 29 27 26 27 29 32 35 38 43 53 64 73 77 84 156 210 220 221 219 218 216 213 213 213 211 211 209 208 217 229
183 185 178 161 151 140 107 66 48 33 19 356 317 243 219 216 137 340 279 136 117 138 151 129 107 90 74 65 61 57 52 47 41 35 30 29 30 31 35 41 43 43 46 48 55 75 86 90 140 221 225 223 222 220 217 215 215 213 212 211 209 212 221
63 97 77 43 43 134 120 73 53 34 19 1 327 248 218 215 165 105 60 114 136 138 137 129 107 87 75 63 57 55 51 48 48 43 37 35 34 34 38 44 46 47 46 44 47 59 71 80 92 127 214 222 224 224 222 219 218 217 215 214 212 212 215
56 67 71 55 44 78 85 67 51 33 20 3 346 5 52 350 242 146 91 124 147 135 128 125 101 78 72 60 50 48 46 45 46 44 43 40 36 36 40 43 45 45 45 44 44 46 50 53 68 95 161 209 222 225 223 222 223 221 217 215 214 214 215
75 63 65 60 52 69 73 46 44 36 17 8 21 51 48 359 351 117 110 121 139 134 129 114 85 64 64 61 51 46 44 45 45 42 43 42 36 34 35 38 42 41 40 42 44 42 41 40 51 104 134 180 210 223 223 220 223 225 220 217 216 215 218
95 67 65 54 26 34 134 79 74 50 5 25 39 29 29 17 43 101 119 121 120 123 118 104 90 71 64 59 50 45 40 40 43 41 41 40 37 33 29 30 37 40 38 38 43 45 42 39 40 48 149 151 163 222 232 222 221 225 225 223 221 218 222
120 80 68 59 354 329 270 236 131 149 187 193 196 198 183 187 145 125 137 147 133 117 109 112 110 87 65 48 39 42 38 33 38 41 39 37 34 32 28 24 29 35 37 36 39 43 42 40 39 40 48 158 156 58 273 237 224 220 223 229 228 225 225
141 123 152 246 313 275 246 223 192 185 199 194 160 143 160 224 158 150 178 196 145 119 124 130 123 109 88 45 27 32 35 31 33 37 37 34 30 28 25 21 20 24 31 33 33 35 37 38 38 39 42 43 36 207 226 257 237 220 216 224 231 231 230
140 132 208 276 253 241 226 175 138 166 189 166 144 140 131 30 236 190 194 139 93 98 128 135 115 111 104 58 30 25 30 30 31 34 33 31 29 25 22 20 17 16 20 25 28 29 29 31 33 35 36 35 30 13 220 241 245 231 219 217 222 229 232
145 137 205 250 239 227 145 94 86 80 90 185 192 161 136 138 255 4 54 78 92 96 106 96 73 45 59 80 57 39 35 30 27 31 31 27 26 24 20 17 15 12 11 13 19 25 27 26 26 30 33 33 32 29 17 279 247 241 233 223 219 221 224
154 144 205 232 232 151 100 94 96 80 41 317 156 127 127 146 151 115 96 99 106 91 57 70 44 15 47 136 117 54 43 35 28 27 26 24 21 20 17 14 12 10 7 6 8 15 23 23 19 23 29 30 31 34 31 9 291 249 245 239 230 223 220
189 179 210 224 115 118 131 129 126 135 182 198 184 175 171 172 180 175 150 126 121 126 135 118 341 342 353 187 177 92 50 41 32 23 19 18 15 13 12 10 9 8 5 3 3 5 9 13 16 18 21 21 25 31 32 19 343 268 244 239 233 225 220
242 235 222 172 117 166 178 161 141 148 143 139 248 249 173 161 178 204 173 139 142 185 189 186 314 320 285 210 168 112 60 38 29 19 12 8 6 6 4 2 3 3 0 358 0 0 357 358 7 15 14 11 16 21 24 23 8 324 264 239 229 223 219
241 273 255 212 221 211 156 124 112 102 74 77 358 300 211 165 166 194 193 163 161 197 213 226 286 289 256 219 149 89 42 19 13 7 1 356 355 355 354 353 352 351 353 354 356 357 353 352 358 5 6 8 10 9 13 20 18 358 310 264 240 228 225
229 260 262 241 245 179 108 114 124 132 127 127 217 259 226 156 142 159 199 185 175 199 234 258 278 265 238 196 101 44 3 357 355 347 345 345 343 342 344 345 343 341 344 348 351 351 349 350 355 356 356 0 3 2 5 12 10 359 338 316 279 236 230
230 247 259 258 265 101 115 131 138 133 126 175 229 240 206 142 142 155 187 192 186 205 241 257 267 258 246 296 12 355 339 339 336 330 333 333 330 333 335 333 333 336 338 339 342 344 342 345 352 351 346 347 350 353 0 8 3 351 343 344 334 291 254
223 228 250 258 257 104 129 150 146 136 153 215 240 234 126 138 156 152 161 190 194 210 242 256 267 269 279 309 329 330 325 324 320 319 322 322 321 324 324 322 325 329 329 329 330 334 335 338 343 346 342 340 340 342 351 1 2 350 346 348 341 319 295
240 239 256 258 254 105 137 157 148 154 204 235 219 112 119 137 154 151 169 207 210 224 250 266 275 278 285 296 305 309 311 312 311 313 316 316 317 318 316 319 323 322 319 320 322 323 327 329 331 334 335 334 334 337 340 344 350 351 347 342 338 340 325
241 244 235 251 275 112 140 155 156 187 220 155 89 118 137 145 167 194 225 244 251 260 272 280 283 286 290 291 294 299 303 306 308 311 313 313 314 315 315 317 319 315 312 313 314 314 316 316 318 323 326 325 325 328 328 327 330 336 337 327 327 342 341
220 232 208 198 73 125 152 169 193 215 211 135 92 155 224 235 244 257 265 261 257 268 281 286 288 291 293 292 296 301 302 305 309 309 310 311 311 311 312 312 311 309 308 307 306 306 308 307 308 313 317 317 316 316 316 318 320 320 316 308 307 319 324
241 278 301 70 89 135 170 207 274 260 204 197 214 265 280 273 263 263 267 267 263 261 271 281 286 288 291 295 300 303 303 305 307 307 308 309 310 310 309 308 308 307 305 303 302 302 301 300 301 303 307 309 310 309 307 309 314 315 311 304 298 296 301
267 275 264 245 230 216 212 231 243 231 221 223 230 255 268 267 262 257 255 262 266 259 262 274 281 285 292 298 300 303 304 304 304 306 306 306 307 308 307 306 306 304 302 300 298 296 295 295 296 297 298 299 302 303 302 304 307 308 306 305 302 297 289
257 258 238 230 242 241 235 239 237 227 227 233 238 251 259 257 253 248 249 256 258 256 258 266 275 283 292 297 299 302 304 303 304 304 303 304 306 306 306 305 304 303 302 299 295 292 291 291 292 292 291 291 294 297 298 299 299 298 299 301 300 298 294
237 257 260 247 244 241 241 245 240 232 232 235 236 239 243 245 244 242 245 250 251 255 260 265 275 284 290 294 298 301 302 303 304 303 302 302 303 304 304 303 302 301 300 298 295 292 289 287 288 288 287 286 286 289 291 292 290 289 291 293 294 294 294
240 254 258 251 245 243 240 235 234 237 237 232 230 230 230 233 237 238 242 244 246 255 265 271 279 286 290 294 298 300 302 303 303 302 301 301 300 300 301 300 299 297 295 294 293 292 290 288 286 284 283 282 281 282 286 288 287 286 284 284 287 289 290
246 248 255 255 255 261 252 231 225 229 229 225 226 225 224 228 231 232 236 241 246 257 268 275 280 284 288 293 296 298 300 301 301 301 301 299 297 297 297 295 293 291 290 289 289 289 291 291 288 284 281 279 278 278 281 284 285 285 282 279 280 283 285
269 278 286 282 270 275 282 266 238 230 224 221 223 222 223 227 227 226 232 240 250 261 269 274 279 283 287 291 295 297 298 299 300 300 299 298 297 295 294 291 289 287 286 286 286 287 288 289 288 285 281 277 275 276 276 277 280 282 279 273 273 276 279
274 279 287 292 278 269 271 268 252 234 219 215 219 219 220 221 221 223 231 243 258 269 273 276 279 284 288 291 293 295 297 298 300 300 299 298 296 293 290 287 284 284 283 283 283 283 284 284 283 281 278 273 270 271 270 269 272 274 271 266 269 271 272
266 270 280 286 278 271 268 261 248 231 215 213 218 218 215 216 222 228 237 254 268 272 274 279 283 286 290 292 293 294 295 297 298 299 299 297 295 291 288 285 282 281 280 279 279 279 279 279 278 277 275 271 267 265 263 261 263 265 262 260 265 267 267